Epoch 2016 May 12.0 TT = JDT 2457520.5 T 2016 Apr. 30.82340 TT Rudenko q 2.0584612 (2000.0) P Q n 0.18781170 Peri. 244.48332 +0.90850542 +0.26868458 a 3.0198656 Node 98.56222 -0.15800061 +0.92989614 e 0.3183600 Incl. 18.88372 -0.38685102 +0.25120066 P 5.25 From 82 observations 2002 Jan. 9-2021 Oct. 7, mean residual 0".3.
m1 = 17.0 + 5 log d + 8.0 log r